Weather in San Diego

United States     32°42′56″N   117°09′16″W
temp.,
°C
wind,
m/s
gust,
m/s
humid.,
%
clouds,
%
prec.,
mm/h
press.,
hPa
HPBL,
m
18 september, sat
sat1823:00+19nw337656 0.0 1017357
02:00+18nw338233 0.0 1016414
05:00+18nw338251 0.0 1016425
08:00+18nw338178 0.1 1018438
11:00+20wnw437225 0.1 1018473
14:00+20wnw547112 0.0 1017472
17:00+20wnw44690 0.0 1016450
20:00+19nw44720 0.0 1016473
19 september, sun
sun1923:00+19nw44750 0.0 1016434
02:00+18nnw44780 0.0 1015386
05:00+18nw33800 0.0 1014310
08:00+18nw22790 0.0 1015364
11:00+20w21690 0.0 1014387
14:00+20wsw32660 0.0 1013345
17:00+21wsw33670 0.0 1011372
20:00+20w11730 0.0 1012248
20 september, mon
mon2023:00+20w11740 0.0 1012192
02:00+20s22750 0.0 1011224
05:00+19s23800 0.0 1011282
08:00+20s34790 0.0 1012336
11:00+21ssw44730 0.0 1013407
14:00+21ssw55745 0.0 1012433
17:00+21ssw44770 0.0 1012419
20:00+20s33810 0.0 1013313
21 september, tue
tue2123:00+20s22830 0.0 1014225
02:00+20s22830 0.0 1014180
05:00+20ssw11830 0.0 1015108
08:00+20s11810 0.0 1017176
11:00+22sw32710 0.0 1018250
14:00+22w33691 0.0 1017292
17:00+22wnw327011 0.0 1016250
20:00+22nw23720 0.0 1017141
22 september, wed
wed2223:00+22nw44750 0.0 1017124
02:00+21nnw45790 0.0 1017158
05:00+21nw34800 0.0 1017133
08:00+21nnw34780 0.0 1017164
11:00+23nw55680 0.0 1017251
14:00+24nw57650 0.0 1015304
17:00+24nw45620 0.0 1014296
20:00+22nw45671 0.0 1014197